Погода в Шадымо-Рыскине

Россия / Республика Мордовия     53°42′52″N   44°39′04″E
темп.,
°C
ветер,
м/с
пор.,
м/с
влажн.,
%
обл.,
%
осадки,
мм/ч
давл.,
гПа
погр.,
м
23 апреля, пт
пт2300:00+7ю22755 0.0 102311
03:00+5ююв338148 0.0 102333
06:00+6юв3381100 0.0 102462
09:00+10юв456986 0.0 1023199
12:00+15ююв334344 0.0 10211909
15:00+15ююв243984 0.0 10202070
18:00+13юв3563100 0.0 1019167
21:00+9ююв387858 0.1 1018162
24 апреля, сб
сб2400:00+8ююв3387100 0.1 101754
03:00+7ююв2390100 0.1 101540
06:00+7ююв249196 0.0 1014100
09:00+12ю47685 0.0 1011903
12:00+14ю6756100 0.3 10091579
15:00+13ю7959100 1.2 10071444
18:00+5з71090100 2.5 1008703
21:00+5зюз6976100 2.6 10101002
25 апреля, вс
вс2500:00+5зюз6128026 0.1 1009543
03:00+2юз511825 0.1 1009367
06:00+2юз6108294 0.1 1010859
09:00+3зюз798870 0.7 1011841
12:00+7з9115611 0.5 10131863
15:00+8зюз9114899 0.6 10142222
18:00+6зюз713593 0.5 10151522
21:00+4юз512690 0.5 1017336
26 апреля, пн
пн2600:00+3юз5117431 0.0 1017265
03:00+2ююз6157375 0.0 1017366
06:00+3ююз61370100 0.0 1016528
09:00+6зюз686891 0.0 10171048
12:00+8юз575895 0.0 10161566
15:00+7юз5774100 0.2 1015984
18:00+6зюз1385100 0.6 1014364
21:00+4з4694100 1.1 1013323
27 апреля, вт
вт2700:00+3ююз4894100 2.3 1013795
03:00+2з24947 2.4 1013179
06:00+2зюз49890 0.0 1013337
09:00+6зюз68635 0.0 10131125
12:00+8зюз8104958 0.6 10132080
15:00+9з71045100 0.6 10132513
18:00+8з58525 0.0 1013630
21:00+4зюз3567100 0.0 101595